BEL8AM EBBR-LDDU

Flight info

Callsign BEL8AM
Flight time N/A
Altitude 37000
Route SOPOK Y863 ROPUV L607 EMGOD DCT MOVUM T109 HAREM Z74 LAMPU DCT NOMBO Y161 MAH DCT VAVOR DCT RADIZ DCT GIMIX DCT SABAD DCT SIPAL
Aircraft A20N/M-DE3FGHIJ1LORVWY/HB1G1

Departure

Time N/A
Airport Brussels Airport (EBBR)

Arrival

Time 2026-05-08 08:36
Airport Dubrovnik Ruđer Bošković Airport (LDDU)
Time Latitude Longitude Altitude Speed Heading
2026-05-08 08:15 43.73765 16.52411 32738 ft 445 kts 150°
2026-05-08 08:16 43.71220 16.54765 31904 ft 446 kts 150°
2026-05-08 08:16 43.68655 16.57133 31072 ft 446 kts 150°
2026-05-08 08:16 43.66053 16.59532 30233 ft 446 kts 150°
2026-05-08 08:16 43.63507 16.61880 29423 ft 446 kts 150°
2026-05-08 08:17 43.60931 16.64251 28607 ft 446 kts 150°
2026-05-08 08:17 43.58352 16.66621 27789 ft 445 kts 151°
2026-05-08 08:17 43.55784 16.68980 27111 ft 441 kts 150°
2026-05-08 08:17 43.53273 16.71287 26686 ft 431 kts 150°
2026-05-08 08:18 43.50786 16.73572 26234 ft 423 kts 150°
2026-05-08 08:18 43.48366 16.75791 25788 ft 416 kts 150°
2026-05-08 08:18 43.45987 16.77968 25342 ft 409 kts 150°
2026-05-08 08:18 43.43655 16.80099 24899 ft 403 kts 150°
2026-05-08 08:19 43.41337 16.82217 24454 ft 399 kts 150°
2026-05-08 08:19 43.39037 16.84314 24010 ft 397 kts 150°
2026-05-08 08:19 43.36712 16.86432 23560 ft 394 kts 150°
2026-05-08 08:19 43.34436 16.88504 23125 ft 392 kts 150°
2026-05-08 08:20 43.32174 16.90562 22695 ft 390 kts 150°
2026-05-08 08:20 43.29932 16.92601 22268 ft 388 kts 150°
2026-05-08 08:20 43.27707 16.94623 21830 ft 385 kts 150°
2026-05-08 08:20 43.25481 16.96644 21395 ft 383 kts 150°
2026-05-08 08:21 43.23268 16.98650 20967 ft 380 kts 150°
2026-05-08 08:21 43.21079 17.00633 20540 ft 379 kts 150°
2026-05-08 08:21 43.18877 17.02627 20125 ft 377 kts 150°
2026-05-08 08:21 43.16703 17.04592 19709 ft 375 kts 150°
2026-05-08 08:22 43.14618 17.06673 19279 ft 376 kts 142°
2026-05-08 08:22 43.12791 17.09265 18855 ft 378 kts 132°
2026-05-08 08:22 43.11295 17.12175 18434 ft 379 kts 126°
2026-05-08 08:22 43.09882 17.15190 18031 ft 377 kts 126°
2026-05-08 08:23 43.08468 17.18240 17620 ft 375 kts 126°
2026-05-08 08:23 43.07075 17.21226 17210 ft 373 kts 126°
2026-05-08 08:23 43.05702 17.24145 16805 ft 370 kts 126°
2026-05-08 08:23 43.04299 17.27109 16386 ft 367 kts 126°
2026-05-08 08:24 43.02921 17.30012 15969 ft 364 kts 126°
2026-05-08 08:24 43.01560 17.32874 15549 ft 363 kts 126°
2026-05-08 08:24 43.00185 17.35758 15114 ft 360 kts 125°
2026-05-08 08:24 42.98827 17.38605 14705 ft 358 kts 125°
2026-05-08 08:25 42.97464 17.41461 14282 ft 356 kts 125°
2026-05-08 08:25 42.96122 17.44272 13875 ft 353 kts 125°
2026-05-08 08:25 42.94806 17.47031 13450 ft 350 kts 125°
2026-05-08 08:25 42.93473 17.49821 13022 ft 346 kts 125°
2026-05-08 08:26 42.92171 17.52541 12614 ft 342 kts 125°
2026-05-08 08:26 42.90883 17.55231 12202 ft 338 kts 125°
2026-05-08 08:26 42.89602 17.57903 11781 ft 335 kts 125°
2026-05-08 08:26 42.88338 17.60536 11365 ft 332 kts 126°
2026-05-08 08:27 42.87092 17.63130 10954 ft 329 kts 125°
2026-05-08 08:27 42.85838 17.65737 10532 ft 327 kts 126°
2026-05-08 08:27 42.84561 17.68294 10047 ft 325 kts 130°
2026-05-08 08:27 42.83116 17.70653 9548 ft 323 kts 136°
2026-05-08 08:28 42.81584 17.72864 9056 ft 322 kts 137°
2026-05-08 08:28 42.80029 17.75068 8553 ft 321 kts 137°
2026-05-08 08:28 42.78488 17.77249 8061 ft 320 kts 137°
2026-05-08 08:28 42.76936 17.79452 7559 ft 318 kts 137°
2026-05-08 08:29 42.75418 17.81612 7067 ft 317 kts 138°
2026-05-08 08:29 42.73896 17.83774 6572 ft 315 kts 138°
2026-05-08 08:29 42.72421 17.85963 6074 ft 315 kts 132°
2026-05-08 08:29 42.71229 17.88399 5577 ft 302 kts 123°
2026-05-08 08:30 42.70259 17.90835 5078 ft 287 kts 121°
2026-05-08 08:30 42.69359 17.93181 4579 ft 273 kts 120°
2026-05-08 08:30 42.67708 17.97452 3992 ft 241 kts 120°
2026-05-08 08:31 42.66969 17.99423 3735 ft 228 kts 118°
2026-05-08 08:31 42.66284 18.01282 3537 ft 214 kts 119°
2026-05-08 08:31 42.65626 18.03008 3372 ft 199 kts 120°
2026-05-08 08:31 42.64998 18.04605 3228 ft 187 kts 120°
2026-05-08 08:32 42.64393 18.06123 3131 ft 176 kts 121°
2026-05-08 08:32 42.63806 18.07586 3065 ft 176 kts 121°
2026-05-08 08:32 42.63223 18.09038 2935 ft 175 kts 121°
2026-05-08 08:32 42.62643 18.10488 2807 ft 174 kts 121°
2026-05-08 08:33 42.62072 18.11916 2612 ft 173 kts 121°
2026-05-08 08:33 42.61503 18.13343 2377 ft 167 kts 121°
2026-05-08 08:33 42.60979 18.14659 2149 ft 153 kts 121°
2026-05-08 08:33 42.60483 18.15904 1950 ft 147 kts 121°
2026-05-08 08:34 42.60008 18.17095 1788 ft 140 kts 121°
2026-05-08 08:34 42.59552 18.18241 1613 ft 136 kts 121°
2026-05-08 08:34 42.59110 18.19348 1430 ft 134 kts 121°
2026-05-08 08:34 42.58667 18.20461 1249 ft 133 kts 121°
2026-05-08 08:35 42.58217 18.21569 1076 ft 133 kts 122°
2026-05-08 08:35 42.57790 18.22679 898 ft 132 kts 120°
2026-05-08 08:35 42.57345 18.23767 741 ft 133 kts 121°
2026-05-08 08:35 42.56915 18.24857 551 ft 125 kts 120°
2026-05-08 08:36 42.56534 18.25812 523 ft 97 kts 118°
2026-05-08 08:36 42.56300 18.26411 523 ft 48 kts 117°
2026-05-08 08:36 42.56195 18.26668 520 ft 13 kts 126°
2026-05-08 08:36 42.56160 18.26635 520 ft 6 kts 243°
2026-05-08 08:37 42.56139 18.26581 520 ft 5 kts 242°
2026-05-08 08:37 42.56118 18.26528 521 ft 6 kts 242°
2026-05-08 08:37 42.56098 18.26469 521 ft 7 kts 253°
2026-05-08 08:37 42.56080 18.26424 521 ft 5 kts 216°
2026-05-08 08:38 42.56050 18.26401 521 ft 3 kts 208°
2026-05-08 08:38 42.56046 18.26399 521 ft 0 kts 207°